Location: Unspecified
(13.3670°N, 0.0000°E)
Time: 22:01:09
(UTC+00:00)

ISS - Visible Passes

Search period start: 21 April 2019 00:00
Search period end: 01 May 2019 00:00
Orbit: 408 x 410 km, 51.6° (Epoch: 22 April)

Date Brightness Start Highest point End Pass type
(mag) Time Alt. Az. Time Alt. Az. Time Alt. Az.
22 Apr -3.4 05:08:36 10° SSW 05:11:51 64° SE 05:15:07 10° NE visible
23 Apr -1.7 04:19:48 18° SSE 04:21:09 24° SE 04:23:52 10° ENE visible
24 Apr -2.6 05:04:34 14° WSW 05:06:45 27° NW 05:09:36 10° N visible
25 Apr -3.5 04:16:23 60° N 04:16:23 60° N 04:19:14 10° NNE visible
26 Apr -0.3 03:28:06 11° ENE 03:28:06 11° ENE 03:28:17 10° NE visible
27 Apr -1.2 04:12:26 13° NNW 04:12:26 13° NNW 04:13:07 10° N visible
